This demonstration page uses our WeatherBlox Daily Observations layout. Learn more.

Left ArrowRight Arrow

34.74481, -87.66753

Hourly Observations for March 12, 2022

Temp ( °F °C ) Dew Point ( °F °C ) Humidity (%) Winds ( mph kmh ) Pressure ( in mb ) Visibility ( mi km ) Precip ( " mm )
12:09 am 00:09 Cloudy with Light Snow 31 -0.6 28 -2.2 89 89 N 12 19 30.05 1018 1 2 0.01 0.25
12:29 am 00:29 Cloudy with Light Snow 31 -0.6 27 -2.8 85 85 N 9 15 30.04 1017 1 1 0.01 0.25
12:42 am 00:42 Mostly Cloudy with Snow 30 -1.1 27 -2.8 88 88 N 14 22 30.06 1018 1 1 0.02 0.51
12:53 am 00:53 Cloudy with Snow 30 -1.1 26 -3.3 85 85 N 18 30 30.03 1017 1 1 0.02 0.51
1:37 am 01:37 Cloudy with Light Snow 29 -1.7 25 -3.9 85 85 N 9 15 30.09 1019 1 2 0.01 0.25
1:45 am 01:45 Cloudy with Light Snow 29 -1.7 24 -4.4 82 82 N 10 17 30.09 1019 3 5 0.01 0.25
1:53 am 01:53 Cloudy with Light Snow 29 -1.7 24 -4.4 82 82 N 12 19 30.04 1017 6 10 0.01 0.25
2:53 am 02:53 Cloudy 30 -1.1 23 -5 75 75 N 10 17 30.04 1017 10 16 0.00 0.00
3:00 am 03:00 Cloudy 30 -1.1 24 -4.4 79 79 NNW 12 19 30.07 1018 10 16 0.00 0.00
3:53 am 03:53 Cloudy 30 -1.1 23 -5 75 75 NNW 14 22 30.06 1018 9 14 0.00 0.00
4:09 am 04:09 Cloudy 30 -1.1 22 -5.6 72 72 NW 12 19 30.11 1020 10 16 0.00 0.00
4:53 am 04:53 Cloudy 29 -1.7 21 -6.1 72 72 NNW 12 19 30.10 1019 10 16 0.00 0.00
5:53 am 05:53 Mostly Cloudy 29 -1.7 21 -6.1 72 72 NW 12 19 30.14 1021 10 16 0.00 0.00
6:09 am 06:09 Cloudy with Light Snow 28 -2.2 22 -5.6 78 78 NNW 8 13 30.18 1022 2 3 0.00 0.00
6:18 am 06:18 Cloudy with Haze 29 -1.7 22 -5.6 75 75 NW 8 13 30.19 1022 6 10 0.00 0.00
6:38 am 06:38 Cloudy 28 -2.2 19 -7.2 69 69 NW 17 28 30.20 1023 9 14 0.00 0.00
6:53 am 06:53 Cloudy 28 -2.2 18 -7.8 66 66 NNW 16 26 30.19 1022 10 16 0.00 0.00
7:53 am 07:53 Mostly Sunny 29 -1.7 16 -8.9 58 58 NNW 14 22 30.22 1024 10 16 0.00 0.00
8:53 am 08:53 Partly Cloudy 27 -2.8 14 -10 58 58 NW 14 22 30.27 1025 10 16 0.00 0.00
9:53 am 09:53 Mostly Sunny 29 -1.7 12 -11.1 49 49 NW 15 24 30.29 1026 10 16 0.00 0.00
10:53 am 10:53 Sunny 30 -1.1 8 -13.3 39 39 N 14 22 30.32 1027 10 16 0.00 0.00
11:53 am 11:53 Sunny 32 0 9 -12.8 38 38 NNW 12 19 30.33 1027 10 16 0.00 0.00
12:53 pm 12:53 Sunny 34 1.1 12 -11.1 40 40 WNW 15 24 30.32 1027 10 16 0.00 0.00
1:53 pm 13:53 Sunny 35 1.7 10 -12.2 35 35 N 12 19 30.32 1027 10 16 0.00 0.00
2:53 pm 14:53 Sunny 36 2.2 10 -12.2 34 34 NW 13 20 30.32 1027 10 16 0.00 0.00
3:53 pm 15:53 Sunny 36 2.2 13 -10.6 39 39 NNW 13 20 30.32 1027 10 16 0.00 0.00
4:53 pm 16:53 Sunny 35 1.7 10 -12.2 35 35 NW 10 17 30.33 1027 10 16 0.00 0.00
5:53 pm 17:53 Sunny 33 0.6 11 -11.7 40 40 WNW 10 17 30.35 1028 10 16 0.00 0.00
6:53 pm 18:53 Clear 32 0 8 -13.3 36 36 NW 6 9 30.37 1028 10 16 0.00 0.00
7:53 pm 19:53 Clear 31 -0.6 10 -12.2 42 42 NW 7 11 30.40 1029 10 16 0.00 0.00
8:53 pm 20:53 Clear 29 -1.7 11 -11.7 47 47 NNW 6 9 30.41 1030 10 16 0.00 0.00
9:53 pm 21:53 Clear 28 -2.2 12 -11.1 51 51 NNW 6 9 30.41 1030 10 16 0.00 0.00
10:53 pm 22:53 Clear 28 -2.2 13 -10.6 53 53 NNW 5 7 30.40 1030 10 16 0.00 0.00
11:53 pm 23:53 Clear 27 -2.8 13 -10.6 55 55 Calm 30.38 1029 10 16 0.00 0.00

Powered by AerisWeather